Date_Time,Julian_Date,Latitude,Longitude,Instrument_Depth,U,V,Speed,Direction
(yyyy-mm-dd hh:mn:ss UTC),(JD),(+ deg. North),(+ deg. East),(m),(cm/s),(cm/s),(cm/s),(deg True)
1981-06-24 14:30:00 UTC,2444780.104167,29.6650,-93.4789,0073,-4.69,8.83,10.0000,332.0000
1981-06-24 15:00:00 UTC,2444780.125000,29.6650,-93.4789,0073,-4.82,9.89,11.0000,334.0000
1981-06-24 15:30:00 UTC,2444780.145833,29.6650,-93.4789,0073,-3.09,9.51,10.0000,342.0000
1981-06-24 16:00:00 UTC,2444780.166667,29.6650,-93.4789,0073,-1.56,8.86,9.0000,350.0000
1981-06-24 16:30:00 UTC,2444780.187500,29.6650,-93.4789,0073,0.47,8.99,9.0000,3.0000
1981-06-24 17:00:00 UTC,2444780.208333,29.6650,-93.4789,0073,4.38,8.99,10.0000,26.0000
1981-06-24 17:30:00 UTC,2444780.229167,29.6650,-93.4789,0073,6.56,7.55,10.0000,41.0000
1981-06-24 18:00:00 UTC,2444780.250000,29.6650,-93.4789,0073,7.91,7.64,11.0000,46.0000
1981-06-24 18:30:00 UTC,2444780.270833,29.6650,-93.4789,0073,7.43,6.69,10.0000,48.0000
1981-06-24 19:00:00 UTC,2444780.291667,29.6650,-93.4789,0073,7.43,6.69,10.0000,48.0000
1981-06-24 19:30:00 UTC,2444780.312500,29.6650,-93.4789,0073,9.01,6.31,11.0000,55.0000
1981-06-24 20:00:00 UTC,2444780.333333,29.6650,-93.4789,0073,11.48,3.51,12.0000,73.0000
1981-06-24 20:30:00 UTC,2444780.354167,29.6650,-93.4789,0073,15.00,0.26,15.0000,89.0000
1981-06-24 21:00:00 UTC,2444780.375000,29.6650,-93.4789,0073,17.93,-1.57,18.0000,95.0000
1981-06-24 21:30:00 UTC,2444780.395833,29.6650,-93.4789,0073,19.85,-2.44,20.0000,97.0000
1981-06-24 22:00:00 UTC,2444780.416667,29.6650,-93.4789,0073,19.63,-3.82,20.0000,101.0000
1981-06-24 22:30:00 UTC,2444780.437500,29.6650,-93.4789,0073,17.39,-4.66,18.0000,105.0000
1981-06-24 23:00:00 UTC,2444780.458333,29.6650,-93.4789,0073,16.17,-5.25,17.0000,108.0000
1981-06-24 23:30:00 UTC,2444780.479167,29.6650,-93.4789,0073,16.80,-6.45,18.0000,111.0000
1981-06-25 00:00:00 UTC,2444780.500000,29.6650,-93.4789,0073,17.49,-7.42,19.0000,113.0000
1981-06-25 00:30:00 UTC,2444780.520833,29.6650,-93.4789,0073,16.44,-7.32,18.0000,114.0000
1981-06-25 01:00:00 UTC,2444780.541667,29.6650,-93.4789,0073,14.26,-7.26,16.0000,117.0000
1981-06-25 01:30:00 UTC,2444780.562500,29.6650,-93.4789,0073,10.24,-8.00,13.0000,128.0000
1981-06-25 02:00:00 UTC,2444780.583333,29.6650,-93.4789,0073,6.15,-9.12,11.0000,146.0000
1981-06-25 02:30:00 UTC,2444780.604167,29.6650,-93.4789,0073,2.47,-10.72,11.0000,167.0000
1981-06-25 03:00:00 UTC,2444780.625000,29.6650,-93.4789,0073,-0.45,-12.99,13.0000,182.0000
1981-06-25 03:30:00 UTC,2444780.645833,29.6650,-93.4789,0073,-2.26,-12.80,13.0000,190.0000
1981-06-25 04:00:00 UTC,2444780.666667,29.6650,-93.4789,0073,-3.11,-11.59,12.0000,195.0000
1981-06-25 04:30:00 UTC,2444780.687500,29.6650,-93.4789,0073,-3.80,-12.43,13.0000,197.0000
1981-06-25 05:00:00 UTC,2444780.708333,29.6650,-93.4789,0073,-5.47,-12.89,14.0000,203.0000
1981-06-25 05:30:00 UTC,2444780.729167,29.6650,-93.4789,0073,-7.83,-11.61,14.0000,214.0000
1981-06-25 06:00:00 UTC,2444780.750000,29.6650,-93.4789,0073,-10.42,-10.79,15.0000,224.0000
1981-06-25 06:30:00 UTC,2444780.770833,29.6650,-93.4789,0073,-11.18,-8.43,14.0000,233.0000
1981-06-25 07:00:00 UTC,2444780.791667,29.6650,-93.4789,0073,-10.29,-6.18,12.0000,239.0000
1981-06-25 07:30:00 UTC,2444780.812500,29.6650,-93.4789,0073,-9.33,-5.83,11.0000,238.0000
1981-06-25 08:00:00 UTC,2444780.833333,29.6650,-93.4789,0073,-9.43,-5.67,11.0000,239.0000
1981-06-25 08:30:00 UTC,2444780.854167,29.6650,-93.4789,0073,-10.34,-3.76,11.0000,250.0000
1981-06-25 09:00:00 UTC,2444780.875000,29.6650,-93.4789,0073,-10.83,-1.91,11.0000,260.0000
1981-06-25 09:30:00 UTC,2444780.895833,29.6650,-93.4789,0073,-8.91,-1.25,9.0000,262.0000
1981-06-25 10:00:00 UTC,2444780.916667,29.6650,-93.4789,0073,-9.00,-0.16,9.0000,269.0000
1981-06-25 10:30:00 UTC,2444780.937500,29.6650,-93.4789,0073,-7.83,1.66,8.0000,282.0000
1981-06-25 11:00:00 UTC,2444780.958333,29.6650,-93.4789,0073,-6.54,2.51,7.0000,291.0000
1981-06-25 11:30:00 UTC,2444780.979167,29.6650,-93.4789,0073,-6.12,3.39,7.0000,299.0000
1981-06-25 12:00:00 UTC,2444781.000000,29.6650,-93.4789,0073,-6.22,5.03,8.0000,309.0000
1981-06-25 12:30:00 UTC,2444781.020833,29.6650,-93.4789,0073,-5.56,5.75,8.0000,316.0000
1981-06-25 13:00:00 UTC,2444781.041667,29.6650,-93.4789,0073,-5.66,5.66,8.0000,315.0000
1981-06-25 13:30:00 UTC,2444781.062500,29.6650,-93.4789,0073,-5.20,4.68,7.0000,312.0000
1981-06-25 14:00:00 UTC,2444781.083333,29.6650,-93.4789,0073,-3.94,4.53,6.0000,319.0000
1981-06-25 14:30:00 UTC,2444781.104167,29.6650,-93.4789,0073,-1.69,3.63,4.0000,335.0000
1981-06-25 15:00:00 UTC,2444781.125000,29.6650,-93.4789,0073,-0.24,1.99,2.0000,353.0000
1981-06-25 15:30:00 UTC,2444781.145833,29.6650,-93.4789,0073,-0.10,2.00,2.0000,357.0000
1981-06-25 16:00:00 UTC,2444781.166667,29.6650,-93.4789,0073,0.72,1.87,2.0000,21.0000
1981-06-25 16:30:00 UTC,2444781.187500,29.6650,-93.4789,0073,1.90,0.62,2.0000,72.0000
1981-06-25 17:00:00 UTC,2444781.208333,29.6650,-93.4789,0073,5.00,-0.09,5.0000,91.0000
1981-06-25 17:30:00 UTC,2444781.229167,29.6650,-93.4789,0073,10.97,-0.77,11.0000,94.0000
1981-06-25 18:00:00 UTC,2444781.250000,29.6650,-93.4789,0073,14.85,-2.09,15.0000,98.0000
1981-06-25 18:30:00 UTC,2444781.270833,29.6650,-93.4789,0073,14.72,-2.86,15.0000,101.0000
1981-06-25 19:00:00 UTC,2444781.291667,29.6650,-93.4789,0073,14.49,-3.88,15.0000,105.0000
1981-06-25 19:30:00 UTC,2444781.312500,29.6650,-93.4789,0073,14.83,-5.99,16.0000,112.0000
1981-06-25 20:00:00 UTC,2444781.333333,29.6650,-93.4789,0073,15.28,-7.45,17.0000,116.0000
1981-06-25 20:30:00 UTC,2444781.354167,29.6650,-93.4789,0073,15.15,-7.72,17.0000,117.0000
1981-06-25 21:00:00 UTC,2444781.375000,29.6650,-93.4789,0073,14.87,-8.24,17.0000,119.0000
1981-06-25 21:30:00 UTC,2444781.395833,29.6650,-93.4789,0073,14.09,-9.51,17.0000,124.0000
1981-06-25 22:00:00 UTC,2444781.416667,29.6650,-93.4789,0073,13.21,-10.70,17.0000,129.0000
1981-06-25 22:30:00 UTC,2444781.437500,29.6650,-93.4789,0073,12.26,-10.28,16.0000,130.0000
1981-06-25 23:00:00 UTC,2444781.458333,29.6650,-93.4789,0073,11.89,-10.71,16.0000,132.0000
1981-06-25 23:30:00 UTC,2444781.479167,29.6650,-93.4789,0073,9.37,-10.40,14.0000,138.0000
1981-06-26 00:00:00 UTC,2444781.500000,29.6650,-93.4789,0073,7.27,-10.78,13.0000,146.0000
1981-06-26 00:30:00 UTC,2444781.520833,29.6650,-93.4789,0073,4.82,-9.89,11.0000,154.0000
1981-06-26 01:00:00 UTC,2444781.541667,29.6650,-93.4789,0073,1.22,-6.89,7.0000,170.0000
1981-06-26 01:30:00 UTC,2444781.562500,29.6650,-93.4789,0073,-2.80,-4.15,5.0000,214.0000
1981-06-26 02:00:00 UTC,2444781.583333,29.6650,-93.4789,0073,-4.92,-0.87,5.0000,260.0000
1981-06-26 02:30:00 UTC,2444781.604167,29.6650,-93.4789,0073,-7.90,1.25,8.0000,279.0000
1981-06-26 03:00:00 UTC,2444781.625000,29.6650,-93.4789,0073,-10.63,2.85,11.0000,285.0000
1981-06-26 03:30:00 UTC,2444781.645833,29.6650,-93.4789,0073,-11.59,3.11,12.0000,285.0000
1981-06-26 04:00:00 UTC,2444781.666667,29.6650,-93.4789,0073,-11.59,3.11,12.0000,285.0000
1981-06-26 04:30:00 UTC,2444781.687500,29.6650,-93.4789,0073,-11.20,4.30,12.0000,291.0000
1981-06-26 05:00:00 UTC,2444781.708333,29.6650,-93.4789,0073,-10.69,5.45,12.0000,297.0000
1981-06-26 05:30:00 UTC,2444781.729167,29.6650,-93.4789,0073,-9.53,5.50,11.0000,300.0000
1981-06-26 06:00:00 UTC,2444781.750000,29.6650,-93.4789,0073,-8.04,7.50,11.0000,313.0000
1981-06-26 06:30:00 UTC,2444781.770833,29.6650,-93.4789,0073,-4.82,9.89,11.0000,334.0000
1981-06-26 07:00:00 UTC,2444781.791667,29.6650,-93.4789,0073,-1.34,10.92,11.0000,353.0000
1981-06-26 07:30:00 UTC,2444781.812500,29.6650,-93.4789,0073,0.52,9.99,10.0000,3.0000
1981-06-26 08:00:00 UTC,2444781.833333,29.6650,-93.4789,0073,1.25,8.91,9.0000,8.0000
1981-06-26 08:30:00 UTC,2444781.854167,29.6650,-93.4789,0073,2.25,9.74,10.0000,13.0000
1981-06-26 09:00:00 UTC,2444781.875000,29.6650,-93.4789,0073,2.78,8.56,9.0000,18.0000
1981-06-26 09:30:00 UTC,2444781.895833,29.6650,-93.4789,0073,2.47,7.61,8.0000,18.0000
1981-06-26 10:00:00 UTC,2444781.916667,29.6650,-93.4789,0073,1.53,7.85,8.0000,11.0000
1981-06-26 10:30:00 UTC,2444781.937500,29.6650,-93.4789,0073,2.42,9.70,10.0000,14.0000
1981-06-26 11:00:00 UTC,2444781.958333,29.6650,-93.4789,0073,5.45,8.39,10.0000,33.0000
1981-06-26 11:30:00 UTC,2444781.979167,29.6650,-93.4789,0073,6.89,5.79,9.0000,50.0000
1981-06-26 12:00:00 UTC,2444782.000000,29.6650,-93.4789,0073,4.24,4.24,6.0000,45.0000
1981-06-26 12:30:00 UTC,2444782.020833,29.6650,-93.4789,0073,2.19,4.49,5.0000,26.0000
1981-06-26 13:00:00 UTC,2444782.041667,29.6650,-93.4789,0073,1.37,3.76,4.0000,20.0000
1981-06-26 13:30:00 UTC,2444782.062500,29.6650,-93.4789,0073,1.12,2.78,3.0000,22.0000
1981-06-26 14:00:00 UTC,2444782.083333,29.6650,-93.4789,0073,1.26,1.55,2.0000,39.0000
1981-06-26 14:30:00 UTC,2444782.104167,29.6650,-93.4789,0073,1.68,1.09,2.0000,57.0000
1981-06-26 15:00:00 UTC,2444782.125000,29.6650,-93.4789,0073,0.00,-0.00,0.0000,175.0000
1981-06-26 15:30:00 UTC,2444782.145833,29.6650,-93.4789,0073,-2.84,-0.98,3.0000,251.0000
1981-06-26 16:00:00 UTC,2444782.166667,29.6650,-93.4789,0073,-4.87,-1.12,5.0000,257.0000
1981-06-26 16:30:00 UTC,2444782.187500,29.6650,-93.4789,0073,-4.33,-2.50,5.0000,240.0000
1981-06-26 17:00:00 UTC,2444782.208333,29.6650,-93.4789,0073,-3.01,-3.99,5.0000,217.0000
1981-06-26 17:30:00 UTC,2444782.229167,29.6650,-93.4789,0073,-0.35,-3.98,4.0000,185.0000
1981-06-26 18:00:00 UTC,2444782.250000,29.6650,-93.4789,0073,2.46,-3.15,4.0000,142.0000
1981-06-26 18:30:00 UTC,2444782.270833,29.6650,-93.4789,0073,2.35,-3.24,4.0000,144.0000
1981-06-26 19:00:00 UTC,2444782.291667,29.6650,-93.4789,0073,1.95,-5.67,6.0000,161.0000
1981-06-26 19:30:00 UTC,2444782.312500,29.6650,-93.4789,0073,3.00,-7.42,8.0000,158.0000
1981-06-26 20:00:00 UTC,2444782.333333,29.6650,-93.4789,0073,3.75,-9.27,10.0000,158.0000
1981-06-26 20:30:00 UTC,2444782.354167,29.6650,-93.4789,0073,2.29,-10.76,11.0000,168.0000
1981-06-26 21:00:00 UTC,2444782.375000,29.6650,-93.4789,0073,2.08,-11.82,12.0000,170.0000
1981-06-26 21:30:00 UTC,2444782.395833,29.6650,-93.4789,0073,3.76,-10.34,11.0000,160.0000
1981-06-26 22:00:00 UTC,2444782.416667,29.6650,-93.4789,0073,3.51,-7.19,8.0000,154.0000
1981-06-26 22:30:00 UTC,2444782.437500,29.6650,-93.4789,0073,2.11,-4.53,5.0000,155.0000
1981-06-26 23:00:00 UTC,2444782.458333,29.6650,-93.4789,0073,0.49,-3.97,4.0000,173.0000
1981-06-26 23:30:00 UTC,2444782.479167,29.6650,-93.4789,0073,-2.12,-3.39,4.0000,212.0000
1981-06-27 00:00:00 UTC,2444782.500000,29.6650,-93.4789,0073,-4.00,0.07,4.0000,271.0000
1981-06-27 00:30:00 UTC,2444782.520833,29.6650,-93.4789,0073,-5.56,2.25,6.0000,292.0000
1981-06-27 01:00:00 UTC,2444782.541667,29.6650,-93.4789,0073,-8.34,3.37,9.0000,292.0000
1981-06-27 01:30:00 UTC,2444782.562500,29.6650,-93.4789,0073,-8.48,5.30,10.0000,302.0000
1981-06-27 02:00:00 UTC,2444782.583333,29.6650,-93.4789,0073,-6.82,7.31,10.0000,317.0000
1981-06-27 02:30:00 UTC,2444782.604167,29.6650,-93.4789,0073,-5.30,8.48,10.0000,328.0000
1981-06-27 03:00:00 UTC,2444782.625000,29.6650,-93.4789,0073,-4.09,8.02,9.0000,333.0000
1981-06-27 03:30:00 UTC,2444782.645833,29.6650,-93.4789,0073,-4.24,6.78,8.0000,328.0000
1981-06-27 04:00:00 UTC,2444782.666667,29.6650,-93.4789,0073,-4.68,5.20,7.0000,318.0000
1981-06-27 04:30:00 UTC,2444782.687500,29.6650,-93.4789,0073,-3.15,3.89,5.0000,321.0000
1981-06-27 05:00:00 UTC,2444782.708333,29.6650,-93.4789,0073,-2.06,3.43,4.0000,329.0000
1981-06-27 05:30:00 UTC,2444782.729167,29.6650,-93.4789,0073,-1.59,2.54,3.0000,328.0000
1981-06-27 06:00:00 UTC,2444782.750000,29.6650,-93.4789,0073,-2.01,2.23,3.0000,318.0000
1981-06-27 06:30:00 UTC,2444782.770833,29.6650,-93.4789,0073,-1.55,1.26,2.0000,309.0000
1981-06-27 07:00:00 UTC,2444782.791667,29.6650,-93.4789,0073,-0.00,0.00,0.0000,273.0000
1981-06-27 07:30:00 UTC,2444782.812500,29.6650,-93.4789,0073,-0.34,-0.94,1.0000,200.0000
1981-06-27 08:00:00 UTC,2444782.833333,29.6650,-93.4789,0073,0.39,-0.92,1.0000,157.0000
1981-06-27 08:30:00 UTC,2444782.854167,29.6650,-93.4789,0073,1.78,-0.91,2.0000,117.0000
1981-06-27 09:00:00 UTC,2444782.875000,29.6650,-93.4789,0073,3.65,-1.63,4.0000,114.0000
1981-06-27 09:30:00 UTC,2444782.895833,29.6650,-93.4789,0073,3.19,-2.41,4.0000,127.0000
1981-06-27 10:00:00 UTC,2444782.916667,29.6650,-93.4789,0073,2.50,-4.33,5.0000,150.0000
1981-06-27 10:30:00 UTC,2444782.937500,29.6650,-93.4789,0073,1.55,-5.80,6.0000,165.0000
1981-06-27 11:00:00 UTC,2444782.958333,29.6650,-93.4789,0073,0.61,-6.97,7.0000,175.0000
1981-06-27 11:30:00 UTC,2444782.979167,29.6650,-93.4789,0073,-1.04,-5.91,6.0000,190.0000
1981-06-27 12:00:00 UTC,2444783.000000,29.6650,-93.4789,0073,-2.62,-3.02,4.0000,221.0000
1981-06-27 12:30:00 UTC,2444783.020833,29.6650,-93.4789,0073,-3.93,-0.76,4.0000,259.0000
1981-06-27 13:00:00 UTC,2444783.041667,29.6650,-93.4789,0073,-3.98,0.42,4.0000,276.0000
1981-06-27 13:30:00 UTC,2444783.062500,29.6650,-93.4789,0073,-4.91,0.95,5.0000,281.0000
1981-06-27 14:00:00 UTC,2444783.083333,29.6650,-93.4789,0073,-4.91,0.95,5.0000,281.0000
1981-06-27 14:30:00 UTC,2444783.104167,29.6650,-93.4789,0073,-4.85,1.21,5.0000,284.0000
1981-06-27 15:00:00 UTC,2444783.125000,29.6650,-93.4789,0073,-3.46,2.00,4.0000,300.0000
1981-06-27 15:30:00 UTC,2444783.145833,29.6650,-93.4789,0073,-3.54,3.54,5.0000,315.0000
1981-06-27 16:00:00 UTC,2444783.166667,29.6650,-93.4789,0073,-3.66,3.41,5.0000,313.0000
1981-06-27 16:30:00 UTC,2444783.187500,29.6650,-93.4789,0073,-3.83,3.21,5.0000,310.0000
1981-06-27 17:00:00 UTC,2444783.208333,29.6650,-93.4789,0073,-1.34,1.49,2.0000,318.0000
1981-06-27 17:30:00 UTC,2444783.229167,29.6650,-93.4789,0073,0.00,0.00,0.0000,84.0000
1981-06-27 18:00:00 UTC,2444783.250000,29.6650,-93.4789,0073,0.73,-0.68,1.0000,133.0000
1981-06-27 18:30:00 UTC,2444783.270833,29.6650,-93.4789,0073,0.88,-0.47,1.0000,118.0000
1981-06-27 19:00:00 UTC,2444783.291667,29.6650,-93.4789,0073,1.88,-0.68,2.0000,110.0000
1981-06-27 19:30:00 UTC,2444783.312500,29.6650,-93.4789,0073,3.46,-2.00,4.0000,120.0000
1981-06-27 20:00:00 UTC,2444783.333333,29.6650,-93.4789,0073,5.87,-3.81,7.0000,123.0000
1981-06-27 20:30:00 UTC,2444783.354167,29.6650,-93.4789,0073,6.99,-5.66,9.0000,129.0000
1981-06-27 21:00:00 UTC,2444783.375000,29.6650,-93.4789,0073,5.74,-8.19,10.0000,145.0000
1981-06-27 21:30:00 UTC,2444783.395833,29.6650,-93.4789,0073,2.78,-8.56,9.0000,162.0000
1981-06-27 22:00:00 UTC,2444783.416667,29.6650,-93.4789,0073,0.84,-7.96,8.0000,174.0000
1981-06-27 22:30:00 UTC,2444783.437500,29.6650,-93.4789,0073,-0.87,-4.92,5.0000,190.0000
1981-06-27 23:00:00 UTC,2444783.458333,29.6650,-93.4789,0073,-2.12,-3.39,4.0000,212.0000
1981-06-27 23:30:00 UTC,2444783.479167,29.6650,-93.4789,0073,-3.39,-2.12,4.0000,238.0000
1981-06-28 00:00:00 UTC,2444783.500000,29.6650,-93.4789,0073,-6.00,0.21,6.0000,272.0000
1981-06-28 00:30:00 UTC,2444783.520833,29.6650,-93.4789,0073,-9.82,1.91,10.0000,281.0000
1981-06-28 01:00:00 UTC,2444783.541667,29.6650,-93.4789,0073,-13.79,2.43,14.0000,280.0000
1981-06-28 01:30:00 UTC,2444783.562500,29.6650,-93.4789,0073,-14.85,2.09,15.0000,278.0000
1981-06-28 02:00:00 UTC,2444783.583333,29.6650,-93.4789,0073,-14.82,2.35,15.0000,279.0000
1981-06-28 02:30:00 UTC,2444783.604167,29.6650,-93.4789,0073,-14.42,4.13,15.0000,286.0000
1981-06-28 03:00:00 UTC,2444783.625000,29.6650,-93.4789,0073,-13.91,5.62,15.0000,292.0000
1981-06-28 03:30:00 UTC,2444783.645833,29.6650,-93.4789,0073,-11.68,5.70,13.0000,296.0000
1981-06-28 04:00:00 UTC,2444783.666667,29.6650,-93.4789,0073,-10.06,6.54,12.0000,303.0000
1981-06-28 04:30:00 UTC,2444783.687500,29.6650,-93.4789,0073,-8.43,7.07,11.0000,310.0000
1981-06-28 05:00:00 UTC,2444783.708333,29.6650,-93.4789,0073,-7.31,6.82,10.0000,313.0000
1981-06-28 05:30:00 UTC,2444783.729167,29.6650,-93.4789,0073,-6.22,5.03,8.0000,309.0000
1981-06-28 06:00:00 UTC,2444783.750000,29.6650,-93.4789,0073,-6.47,4.70,8.0000,306.0000
1981-06-28 06:30:00 UTC,2444783.770833,29.6650,-93.4789,0073,-6.30,4.93,8.0000,308.0000
1981-06-28 07:00:00 UTC,2444783.791667,29.6650,-93.4789,0073,-4.95,4.95,7.0000,315.0000
1981-06-28 07:30:00 UTC,2444783.812500,29.6650,-93.4789,0073,-2.11,4.53,5.0000,335.0000
1981-06-28 08:00:00 UTC,2444783.833333,29.6650,-93.4789,0073,0.21,3.99,4.0000,3.0000
1981-06-28 08:30:00 UTC,2444783.854167,29.6650,-93.4789,0073,0.73,2.91,3.0000,14.0000
1981-06-28 09:00:00 UTC,2444783.875000,29.6650,-93.4789,0073,0.68,1.88,2.0000,20.0000
1981-06-28 09:30:00 UTC,2444783.895833,29.6650,-93.4789,0073,0.19,0.98,1.0000,11.0000
1981-06-28 10:00:00 UTC,2444783.916667,29.6650,-93.4789,0073,0.42,1.96,2.0000,12.0000
1981-06-28 10:30:00 UTC,2444783.937500,29.6650,-93.4789,0073,1.72,2.46,3.0000,35.0000
1981-06-28 11:00:00 UTC,2444783.958333,29.6650,-93.4789,0073,3.47,3.60,5.0000,44.0000
1981-06-28 11:30:00 UTC,2444783.979167,29.6650,-93.4789,0073,4.68,5.20,7.0000,42.0000
1981-06-28 12:00:00 UTC,2444784.000000,29.6650,-93.4789,0073,4.11,5.66,7.0000,36.0000
1981-06-28 12:30:00 UTC,2444784.020833,29.6650,-93.4789,0073,2.96,6.34,7.0000,25.0000
1981-06-28 13:00:00 UTC,2444784.041667,29.6650,-93.4789,0073,1.75,5.74,6.0000,17.0000
1981-06-28 13:30:00 UTC,2444784.062500,29.6650,-93.4789,0073,0.94,5.93,6.0000,9.0000
1981-06-28 14:00:00 UTC,2444784.083333,29.6650,-93.4789,0073,0.21,6.00,6.0000,2.0000
1981-06-28 14:30:00 UTC,2444784.104167,29.6650,-93.4789,0073,0.12,7.00,7.0000,1.0000
1981-06-28 15:00:00 UTC,2444784.125000,29.6650,-93.4789,0073,1.10,6.91,7.0000,9.0000
1981-06-28 15:30:00 UTC,2444784.145833,29.6650,-93.4789,0073,3.25,7.31,8.0000,24.0000
1981-06-28 16:00:00 UTC,2444784.166667,29.6650,-93.4789,0073,4.11,5.66,7.0000,36.0000
1981-06-28 16:30:00 UTC,2444784.187500,29.6650,-93.4789,0073,3.28,3.77,5.0000,41.0000
1981-06-28 17:00:00 UTC,2444784.208333,29.6650,-93.4789,0073,3.47,3.60,5.0000,44.0000
1981-06-28 17:30:00 UTC,2444784.229167,29.6650,-93.4789,0073,3.89,3.15,5.0000,51.0000
1981-06-28 18:00:00 UTC,2444784.250000,29.6650,-93.4789,0073,5.48,2.44,6.0000,66.0000
1981-06-28 18:30:00 UTC,2444784.270833,29.6650,-93.4789,0073,8.97,0.78,9.0000,85.0000
1981-06-28 19:00:00 UTC,2444784.291667,29.6650,-93.4789,0073,11.82,-2.08,12.0000,100.0000
1981-06-28 19:30:00 UTC,2444784.312500,29.6650,-93.4789,0073,12.98,-5.24,14.0000,112.0000
1981-06-28 20:00:00 UTC,2444784.333333,29.6650,-93.4789,0073,12.72,-7.95,15.0000,122.0000
1981-06-28 20:30:00 UTC,2444784.354167,29.6650,-93.4789,0073,12.08,-10.50,16.0000,131.0000
1981-06-28 21:00:00 UTC,2444784.375000,29.6650,-93.4789,0073,11.57,-13.79,18.0000,140.0000
1981-06-28 21:30:00 UTC,2444784.395833,29.6650,-93.4789,0073,10.35,-15.93,19.0000,147.0000
1981-06-28 22:00:00 UTC,2444784.416667,29.6650,-93.4789,0073,8.33,-17.08,19.0000,154.0000
1981-06-28 22:30:00 UTC,2444784.437500,29.6650,-93.4789,0073,7.12,-17.62,19.0000,158.0000
1981-06-28 23:00:00 UTC,2444784.458333,29.6650,-93.4789,0073,5.25,-16.17,17.0000,162.0000
1981-06-28 23:30:00 UTC,2444784.479167,29.6650,-93.4789,0073,4.40,-16.42,17.0000,165.0000
1981-06-29 00:00:00 UTC,2444784.500000,29.6650,-93.4789,0073,4.11,-16.50,17.0000,166.0000
1981-06-29 00:30:00 UTC,2444784.520833,29.6650,-93.4789,0073,2.51,-17.82,18.0000,172.0000
1981-06-29 01:00:00 UTC,2444784.541667,29.6650,-93.4789,0073,-1.57,-17.93,18.0000,185.0000
1981-06-29 01:30:00 UTC,2444784.562500,29.6650,-93.4789,0073,-5.21,-15.13,16.0000,199.0000
1981-06-29 02:00:00 UTC,2444784.583333,29.6650,-93.4789,0073,-7.64,-10.52,13.0000,216.0000
1981-06-29 02:30:00 UTC,2444784.604167,29.6650,-93.4789,0073,-8.48,-5.30,10.0000,238.0000
1981-06-29 03:00:00 UTC,2444784.625000,29.6650,-93.4789,0073,-7.85,-1.53,8.0000,259.0000
1981-06-29 03:30:00 UTC,2444784.645833,29.6650,-93.4789,0073,-7.97,0.70,8.0000,275.0000
1981-06-29 04:00:00 UTC,2444784.666667,29.6650,-93.4789,0073,-9.66,2.59,10.0000,285.0000
1981-06-29 04:30:00 UTC,2444784.687500,29.6650,-93.4789,0073,-10.13,4.30,11.0000,293.0000
1981-06-29 05:00:00 UTC,2444784.708333,29.6650,-93.4789,0073,-10.69,5.45,12.0000,297.0000
1981-06-29 05:30:00 UTC,2444784.729167,29.6650,-93.4789,0073,-10.69,5.45,12.0000,297.0000
1981-06-29 06:00:00 UTC,2444784.750000,29.6650,-93.4789,0073,-10.88,5.07,12.0000,295.0000
1981-06-29 06:30:00 UTC,2444784.770833,29.6650,-93.4789,0073,-9.97,4.65,11.0000,295.0000
1981-06-29 07:00:00 UTC,2444784.791667,29.6650,-93.4789,0073,-8.91,4.54,10.0000,297.0000
1981-06-29 07:30:00 UTC,2444784.812500,29.6650,-93.4789,0073,-8.16,3.80,9.0000,295.0000
1981-06-29 08:00:00 UTC,2444784.833333,29.6650,-93.4789,0073,-6.73,1.93,7.0000,286.0000
1981-06-29 08:30:00 UTC,2444784.854167,29.6650,-93.4789,0073,-5.96,0.73,6.0000,277.0000
1981-06-29 09:00:00 UTC,2444784.875000,29.6650,-93.4789,0073,-4.99,0.26,5.0000,273.0000
1981-06-29 09:30:00 UTC,2444784.895833,29.6650,-93.4789,0073,-3.99,0.21,4.0000,273.0000
1981-06-29 10:00:00 UTC,2444784.916667,29.6650,-93.4789,0073,-2.00,-0.07,2.0000,268.0000
1981-06-29 10:30:00 UTC,2444784.937500,29.6650,-93.4789,0073,-1.68,-1.09,2.0000,237.0000
1981-06-29 11:00:00 UTC,2444784.958333,29.6650,-93.4789,0073,-1.03,-2.82,3.0000,200.0000
1981-06-29 11:30:00 UTC,2444784.979167,29.6650,-93.4789,0073,2.01,-2.23,3.0000,138.0000
1981-06-29 12:00:00 UTC,2444785.000000,29.6650,-93.4789,0073,5.87,1.25,6.0000,78.0000
1981-06-29 12:30:00 UTC,2444785.020833,29.6650,-93.4789,0073,8.46,3.08,9.0000,70.0000
1981-06-29 13:00:00 UTC,2444785.041667,29.6650,-93.4789,0073,9.70,2.42,10.0000,76.0000
1981-06-29 13:30:00 UTC,2444785.062500,29.6650,-93.4789,0073,12.80,2.26,13.0000,80.0000
1981-06-29 14:00:00 UTC,2444785.083333,29.6650,-93.4789,0073,15.80,2.50,16.0000,81.0000
1981-06-29 14:30:00 UTC,2444785.104167,29.6650,-93.4789,0073,15.94,1.39,16.0000,85.0000
1981-06-29 15:00:00 UTC,2444785.125000,29.6650,-93.4789,0073,13.00,-0.23,13.0000,91.0000
1981-06-29 15:30:00 UTC,2444785.145833,29.6650,-93.4789,0073,7.00,-0.24,7.0000,92.0000
1981-06-29 16:00:00 UTC,2444785.166667,29.6650,-93.4789,0073,2.87,0.88,3.0000,73.0000
1981-06-29 16:30:00 UTC,2444785.187500,29.6650,-93.4789,0073,3.02,2.62,4.0000,49.0000
1981-06-29 17:00:00 UTC,2444785.208333,29.6650,-93.4789,0073,4.91,3.44,6.0000,55.0000
1981-06-29 17:30:00 UTC,2444785.229167,29.6650,-93.4789,0073,8.28,3.52,9.0000,67.0000
1981-06-29 18:00:00 UTC,2444785.250000,29.6650,-93.4789,0073,9.88,1.56,10.0000,81.0000
1981-06-29 18:30:00 UTC,2444785.270833,29.6650,-93.4789,0073,10.92,-1.34,11.0000,97.0000
1981-06-29 19:00:00 UTC,2444785.291667,29.6650,-93.4789,0073,9.56,-2.92,10.0000,107.0000
1981-06-29 19:30:00 UTC,2444785.312500,29.6650,-93.4789,0073,9.51,-3.09,10.0000,108.0000
1981-06-29 20:00:00 UTC,2444785.333333,29.6650,-93.4789,0073,12.56,-3.36,13.0000,105.0000
1981-06-29 20:30:00 UTC,2444785.354167,29.6650,-93.4789,0073,16.26,-4.97,17.0000,107.0000
1981-06-29 21:00:00 UTC,2444785.375000,29.6650,-93.4789,0073,18.87,-9.21,21.0000,116.0000
1981-06-29 21:30:00 UTC,2444785.395833,29.6650,-93.4789,0073,19.42,-14.11,24.0000,126.0000
1981-06-29 22:00:00 UTC,2444785.416667,29.6650,-93.4789,0073,17.55,-16.37,24.0000,133.0000
1981-06-29 22:30:00 UTC,2444785.437500,29.6650,-93.4789,0073,14.47,-17.87,23.0000,141.0000
1981-06-29 23:00:00 UTC,2444785.458333,29.6650,-93.4789,0073,10.82,-18.00,21.0000,149.0000
1981-06-29 23:30:00 UTC,2444785.479167,29.6650,-93.4789,0073,7.45,-15.28,17.0000,154.0000
1981-06-30 00:00:00 UTC,2444785.500000,29.6650,-93.4789,0073,5.02,-13.07,14.0000,159.0000
1981-06-30 00:30:00 UTC,2444785.520833,29.6650,-93.4789,0073,2.70,-11.69,12.0000,167.0000
1981-06-30 01:00:00 UTC,2444785.541667,29.6650,-93.4789,0073,0.28,-8.00,8.0000,178.0000
1981-06-30 01:30:00 UTC,2444785.562500,29.6650,-93.4789,0073,-3.11,-2.52,4.0000,231.0000
1981-06-30 02:00:00 UTC,2444785.583333,29.6650,-93.4789,0073,-7.76,1.94,8.0000,284.0000
1981-06-30 02:30:00 UTC,2444785.604167,29.6650,-93.4789,0073,-10.79,5.26,12.0000,296.0000
1981-06-30 03:00:00 UTC,2444785.625000,29.6650,-93.4789,0073,-12.78,9.63,16.0000,307.0000
1981-06-30 03:30:00 UTC,2444785.645833,29.6650,-93.4789,0073,-11.38,12.63,17.0000,318.0000
1981-06-30 04:00:00 UTC,2444785.666667,29.6650,-93.4789,0073,-9.18,13.11,16.0000,325.0000
1981-06-30 04:30:00 UTC,2444785.687500,29.6650,-93.4789,0073,-10.04,11.15,15.0000,318.0000